Location: Poughquag
(41.6090°N, 73.6820°W)
Time: 12:12:50
(UTC-04:00)

Tiros 1 - Pass Details

Date: 30 May 2020
Orbit: 630 x 664 km, 48.4° (Epoch: 06 July)

Event Time Altitude Azimuth Distance (km) Brightness Sun altitude
Rises 14:53:14 0° 262° (W) 2,963 11.0 57.9°
Reaches altitude 10° 14:55:40 10° 268° (W) 2,048 10.4 57.5°
Maximum altitude 15:00:14 48° 343° (NNW) 841 8.3 56.8°
Drops below altitude 10° 15:04:46 10° 58° (ENE) 2,031 9.5 56.0°
Sets 15:07:09 0° 64° (ENE) 2,935 10.2 55.6°
